Location: Eekwerd
(53.3234°N, 6.7984°E)
Time: 13:49:32
(UTC+00:00)

Cosmos 1898 Rocket - Pass Details

Date: 15 May 2026
Orbit: 749 x 778 km, 74.0° (Epoch: 11 June)

Event Time Altitude Azimuth Distance (km) Brightness Sun altitude
Rises 21:12:51 0° 336° (NNW) 3,215 8.7 -11.9°
Reaches altitude 10° 21:15:23 10° 344° (NNW) 2,290 7.3 -12.1°
Maximum altitude 21:20:13 38° 52° (NE) 1,151 4.5 -12.5°
Enters shadow 21:24:25 13° 118° (ESE) 2,073 5.2 -12.8°
